Cap Felix — ONFH — position and weather

sailwx.info

Track history (hours):
 
Tides and Currents Weather Stations Pressure Air Temp Water Temp Dewpoint Dewpoint Depression Visibility Wind Speed Wind Dir Waves Ship Positions

Cap Felix

Last reported at 2015-Aug-07 13:31 UTC. Time now 2015-Aug-31 17:53 UTC.
Position N 26°40' W 114°49'.
Warning: this ship's position is 24 days out of date.

Length 275 m; draft 8.9 m.

Type: Tanker. MMSI: 205517000.

Date/timePositionNaut miles runAvg speedWind from/ knotsBaromVisibWave heightAir tempDewpointWater temp
2015-Aug-07 13:31N 26°40' W 114°49'8 7.8
2015-Aug-07 12:33N 26°46' W 114°54'9 7.7
2015-Aug-07 11:19N 26°54' W 115°01'6 7.9
2015-Aug-07 10:33N 26°59' W 115°05'27 8.0
2015-Aug-07 07:12N 27°20' W 115°22'5 7.6
2015-Aug-07 06:29N 27°25' W 115°26'8 7.4
2015-Aug-07 05:27N 27°31' W 115°31'8 7.4
2015-Aug-07 04:21N 27°38' W 115°36'6 7.4
2015-Aug-07 03:33N 27°42' W 115°40'8 7.7
2015-Aug-07 02:33N 27°48' W 115°46'8 8.0
2015-Aug-07 01:33N 27°55' W 115°51'9 8.1
2015-Aug-07 00:28N 28°02' W 115°57'7 7.9
2015-Aug-06 23:33N 28°08' W 116°01'8 8.2
2015-Aug-06 22:33N 28°16' W 116°04'10 8.1
2015-Aug-06 21:19N 28°25' W 116°08'6 7.9
2015-Aug-06 20:33N 28°31' W 116°10'8 7.8
2015-Aug-06 19:32N 28°38' W 116°13'7 7.6
2015-Aug-06 18:33N 28°45' W 116°16'8 7.7
2015-Aug-06 17:32N 28°53' W 116°19'8 7.9
2015-Aug-06 16:32N 29°00' W 116°22'8 7.8
2015-Aug-06 15:33N 29°08' W 116°24'9 8.0
2015-Aug-06 14:29N 29°16' W 116°28'8 7.8
2015-Aug-06 13:26N 29°23' W 116°31'7 7.6
2015-Aug-06 12:33N 29°30' W 116°33'8 7.9
2015-Aug-06 11:32N 29°37' W 116°36'8 8.0
2015-Aug-06 10:33N 29°45' W 116°39'17 8.4
2015-Aug-06 08:32N 30°01' W 116°46'9 8.4
2015-Aug-06 07:31N 30°09' W 116°49'8 8.2
2015-Aug-06 06:33N 30°16' W 116°52'8 8.1
2015-Aug-06 05:33N 30°24' W 116°55'8 8.2
2015-Aug-06 04:33N 30°32' W 116°58'8 8.3
2015-Aug-06 03:33N 30°40' W 117°01'9 8.5
2015-Aug-06 02:33N 30°48' W 117°04'9 8.6
2015-Aug-06 01:33N 30°56' W 117°07'9 9.0
2015-Aug-06 00:33N 31°05' W 117°09'13 9.1
2015-Aug-05 23:08N 31°17' W 117°14'5 8.9
2015-Aug-05 22:33N 31°22' W 117°16'9 8.6
2015-Aug-05 21:33N 31°30' W 117°20'8 8.4
2015-Aug-05 20:33N 31°37' W 117°24'8 8.0
2015-Aug-05 19:33N 31°45' W 117°27'8 8.0
2015-Aug-05 18:32N 31°53' W 117°31'8 7.9
2015-Aug-05 17:33N 31°60' W 117°34'8 7.8
2015-Aug-05 16:31N 32°07' W 117°38'2 1.7
2015-Aug-05 15:31N 32°09' W 117°38'2 1.6
2015-Aug-05 14:34N 32°11' W 117°37'8 7.6
2015-Aug-05 13:34N 32°18' W 117°40'8 8.1
2015-Aug-05 12:32N 32°26' W 117°44'8 8.2
2015-Aug-05 11:34N 32°33' W 117°47'8 8.2
2015-Aug-05 10:34N 32°41' W 117°50'8 8.1
2015-Aug-05 09:33N 32°48' W 117°54'8 7.9
2015-Aug-05 08:34N 32°56' W 117°57'8 7.8
2015-Aug-05 07:34N 33°03' W 117°60'8 8.1
2015-Aug-05 06:34N 33°11' W 118°03'8 8.1
2015-Aug-05 05:34N 33°18' W 118°06'9 8.7
2015-Aug-05 04:34N 33°27' W 118°10'9 8.5
2015-Aug-05 03:33N 33°35' W 118°13'8 7.6
2015-Aug-05 02:33N 33°42' W 118°11'3 2.7
2015-Aug-05 01:33N 33°44' W 118°09'0 0.1
2015-Aug-05 00:33N 33°44' W 118°09'0 0.0
2015-Aug-04 23:33N 33°44' W 118°09'0 0.0
2015-Aug-04 22:33N 33°44' W 118°09'0 0.1
2015-Aug-04 21:33N 33°44' W 118°09'0 0.1
2015-Aug-04 20:33N 33°44' W 118°09'0 0.1
2015-Aug-04 19:33N 33°44' W 118°09'0 0.0
2015-Aug-04 18:33N 33°44' W 118°09'0 0.2
2015-Aug-04 17:33N 33°44' W 118°09'0 0.1
2015-Aug-04 16:33N 33°44' W 118°09'1 0.8
2015-Aug-04 15:34N 33°44' W 118°10'8 8.0
2015-Aug-04 14:33N 33°36' W 118°14'1111.0
2015-Aug-04 13:34N 33°39' W 118°27'9 9.4
2015-Aug-04 12:34N 33°48' W 118°30'6 6.4
2015-Aug-04 11:33N 33°54' W 118°27'0 0.3
2015-Aug-04 10:25N 33°54' W 118°27'0 0.1
2015-Aug-04 09:31N 33°54' W 118°27'0 0.0
2015-Aug-04 08:31N 33°54' W 118°27'0 0.0
2015-Aug-04 07:22N 33°54' W 118°27'0 0.0
2015-Aug-04 06:28N 33°54' W 118°27'0 0.0
2015-Aug-04 05:22N 33°54' W 118°27'0 0.0
2015-Aug-04 04:28N 33°54' W 118°27'0 0.0
2015-Aug-04 03:22N 33°54' W 118°27'0 0.0
2015-Aug-04 02:28N 33°54' W 118°27'0 0.0
2015-Aug-04 01:22N 33°54' W 118°27'0 0.0
2015-Aug-04 00:31N 33°54' W 118°27'0 0.0
2015-Aug-03 23:31N 33°54' W 118°27'0 0.0
2015-Aug-03 22:31N 33°54' W 118°27'0 0.0
2015-Aug-03 21:31N 33°54' W 118°27'0 0.0
2015-Aug-03 20:31N 33°54' W 118°27'0 0.0
2015-Aug-03 19:31N 33°54' W 118°27'0 0.0
2015-Aug-03 18:31N 33°54' W 118°27'0 0.0
2015-Aug-03 17:28N 33°54' W 118°27'0 0.0
2015-Aug-03 16:28N 33°54' W 118°27'0 0.0
2015-Aug-03 15:28N 33°54' W 118°27'0 0.0
2015-Aug-03 14:31N 33°54' W 118°27'0 0.0
2015-Aug-03 13:28N 33°54' W 118°27'0 0.0
2015-Aug-03 12:28N 33°54' W 118°27'0 0.0
2015-Aug-03 11:04N 33°54' W 118°27'0 0.0
2015-Aug-03 10:28N 33°54' W 118°27'0 0.0
2015-Aug-03 09:28N 33°54' W 118°27'0 0.0
2015-Aug-03 08:10N 33°54' W 118°27'0 0.0
2015-Aug-03 06:22N 33°54' W 118°27'0 0.0
2015-Aug-03 05:16N 33°54' W 118°27'0 0.0
2015-Aug-03 01:16N 33°54' W 118°27'0 0.0
2015-Aug-03 00:25N 33°54' W 118°27'0 0.0
2015-Aug-02 23:25N 33°54' W 118°27'0 0.0
2015-Aug-02 22:31N 33°54' W 118°27'0 0.0
2015-Aug-02 21:28N 33°54' W 118°27'0 0.0
2015-Aug-02 20:22N 33°54' W 118°27'0 0.0
2015-Aug-02 18:22N 33°54' W 118°27'0 0.1
2015-Aug-02 17:28N 33°54' W 118°27'2 2.1
2015-Aug-02 16:33N 33°53' W 118°29'1 0.9
2015-Aug-02 15:30N 33°54' W 118°29'0 0.1
2015-Aug-02 14:33N 33°54' W 118°30'0 0.1
2015-Aug-02 13:33N 33°54' W 118°30'0 0.0
2015-Aug-02 12:33N 33°54' W 118°30'0 0.1
2015-Aug-02 11:33N 33°54' W 118°30'0 0.1
2015-Aug-02 10:33N 33°54' W 118°29'0 0.0
2015-Aug-02 09:33N 33°54' W 118°29'0 0.0
2015-Aug-02 08:33N 33°54' W 118°29'0 0.1
2015-Aug-02 07:33N 33°54' W 118°29'0 0.1
2015-Aug-02 06:33N 33°54' W 118°30'0 0.0
2015-Aug-02 05:33N 33°54' W 118°30'0 0.1
2015-Aug-02 04:33N 33°54' W 118°29'0 0.0
2015-Aug-02 03:33N 33°54' W 118°29'0 0.0
2015-Aug-02 02:33N 33°54' W 118°29'0 0.1
2015-Aug-02 01:33N 33°54' W 118°30'0 0.0
2015-Aug-02 00:30N 33°54' W 118°30'0 0.1
2015-Aug-01 23:33N 33°54' W 118°29'0 0.1
2015-Aug-01 22:33N 33°54' W 118°29'0 0.0
2015-Aug-01 21:33N 33°54' W 118°29'0 0.0
2015-Aug-01 20:33N 33°54' W 118°29'0 0.1
2015-Aug-01 19:33N 33°54' W 118°29'0 0.1
2015-Aug-01 18:33N 33°54' W 118°29'0 0.0
2015-Aug-01 17:33N 33°54' W 118°29'0 0.0
2015-Aug-01 16:33N 33°54' W 118°29'0 0.0
2015-Aug-01 15:33N 33°54' W 118°29'0 0.0
2015-Aug-01 14:33N 33°54' W 118°29'0 0.1
2015-Aug-01 13:33N 33°54' W 118°30'0 0.1
2015-Aug-01 12:33N 33°54' W 118°30'0 0.1
2015-Aug-01 11:33N 33°54' W 118°30'0 0.1
2015-Aug-01 10:33N 33°54' W 118°29'0 0.1
2015-Aug-01 09:33N 33°54' W 118°29'0 0.0
2015-Aug-01 08:33N 33°54' W 118°29'0 0.1
2015-Aug-01 07:33N 33°54' W 118°30'0 0.1
2015-Aug-01 06:33N 33°54' W 118°29'0 0.1
2015-Aug-01 05:33N 33°54' W 118°29'0 0.0
2015-Aug-01 04:33N 33°54' W 118°29'0 0.0
2015-Aug-01 03:33N 33°54' W 118°29'0 0.1
2015-Aug-01 02:33N 33°54' W 118°29'0 0.0
2015-Aug-01 01:33N 33°54' W 118°29'0 0.1
2015-Aug-01 00:33N 33°54' W 118°29'0 0.0
2015-Jul-31 23:33N 33°54' W 118°29'0 0.0
2015-Jul-31 22:33N 33°54' W 118°29'0 0.0
2015-Jul-31 21:33N 33°54' W 118°29'0 0.0
2015-Jul-31 20:33N 33°54' W 118°29'0 0.0
2015-Jul-31 19:33N 33°54' W 118°29'0 0.0
2015-Jul-31 18:33N 33°54' W 118°29'0 0.0
2015-Jul-31 17:33N 33°54' W 118°29'0 0.0
2015-Jul-31 16:33N 33°54' W 118°29'0 0.0
2015-Jul-31 15:33N 33°54' W 118°29'0 0.2
2015-Jul-31 14:33N 33°54' W 118°30'5 3.8
2015-Jul-31 13:08N 33°49' W 118°30'4 7.0
2015-Jul-31 12:33N 33°45' W 118°30'6 6.1
2015-Jul-31 11:33N 33°40' W 118°25'6 6.2
2015-Jul-31 10:33N 33°38' W 118°18'7 6.6
2015-Jul-31 09:33N 33°36' W 118°11'7 6.6
2015-Jul-31 08:33N 33°30' W 118°07'8 7.2
2015-Jul-31 07:30N 33°23' W 118°04'7 7.2
2015-Jul-31 06:33N 33°16' W 118°02'7 7.0
2015-Jul-31 05:33N 33°09' W 117°60'7 7.1
2015-Jul-31 04:33N 33°02' W 117°58'7 7.2
2015-Jul-31 03:33N 32°56' W 117°55'7 7.0
2015-Jul-31 02:33N 32°49' W 117°53'7 6.8
2015-Jul-31 01:33N 32°42' W 117°51'3 2.9
2015-Jul-31 00:33N 32°39' W 117°51'0 0.2
2015-Jul-30 23:33N 32°39' W 117°51'0 0.3
2015-Jul-30 22:33N 32°39' W 117°51'1 0.8
2015-Jul-30 21:33N 32°39' W 117°51'5 5.1
2015-Jul-30 20:33N 32°34' W 117°49'7 6.8
2015-Jul-30 19:33N 32°27' W 117°49'7 6.7
2015-Jul-30 18:33N 32°20' W 117°47'7 7.0
2015-Jul-30 17:33N 32°13' W 117°47'7 7.0
2015-Jul-30 16:33N 32°06' W 117°46'7 6.9
2015-Jul-30 15:33N 31°60' W 117°45'7 7.3
2015-Jul-30 14:33N 31°52' W 117°44'7 7.4
2015-Jul-30 13:33N 31°45' W 117°43'8 7.2
2015-Jul-30 12:28N 31°37' W 117°42'7 7.1
2015-Jul-30 11:33N 31°31' W 117°41'7 6.8
2015-Jul-30 10:29N 31°24' W 117°38'6 6.9
2015-Jul-30 09:33N 31°18' W 117°36'7 6.8
2015-Jul-30 08:33N 31°11' W 117°33'8 6.6
2015-Jul-30 07:24N 31°04' W 117°30'6 6.5
2015-Jul-30 06:33N 30°59' W 117°28'7 6.5
2015-Jul-30 05:33N 30°53' W 117°26'20 6.5
2015-Jul-30 02:29N 30°34' W 117°19'142 6.2
2015-Jul-29 03:33N 28°19' W 116°28'  
Track history (hours):
 
Tides and Currents Weather Stations Pressure Air Temp Water Temp Dewpoint Dewpoint Depression Visibility Wind Speed Wind Dir Waves Ship Positions

Cap Felix

Last reported at 2015-Aug-07 13:31 UTC. Time now 2015-Aug-31 17:53 UTC.
Position N 26°40' W 114°49'.
Warning: this ship's position is 24 days out of date.

Length 275 m; draft 8.9 m.

Type: Tanker. MMSI: 205517000.

Date/timePositionNaut miles runAvg speedWind from/ knotsBaromVisibWave heightAir tempDewpointWater temp
2015-Aug-07 13:31N 26°40' W 114°49'8 7.8
2015-Aug-07 12:33N 26°46' W 114°54'9 7.7
2015-Aug-07 11:19N 26°54' W 115°01'6 7.9
2015-Aug-07 10:33N 26°59' W 115°05'27 8.0
2015-Aug-07 07:12N 27°20' W 115°22'5 7.6
2015-Aug-07 06:29N 27°25' W 115°26'8 7.4
2015-Aug-07 05:27N 27°31' W 115°31'8 7.4
2015-Aug-07 04:21N 27°38' W 115°36'6 7.4
2015-Aug-07 03:33N 27°42' W 115°40'8 7.7
2015-Aug-07 02:33N 27°48' W 115°46'8 8.0
2015-Aug-07 01:33N 27°55' W 115°51'9 8.1
2015-Aug-07 00:28N 28°02' W 115°57'7 7.9
2015-Aug-06 23:33N 28°08' W 116°01'8 8.2
2015-Aug-06 22:33N 28°16' W 116°04'10 8.1
2015-Aug-06 21:19N 28°25' W 116°08'6 7.9
2015-Aug-06 20:33N 28°31' W 116°10'8 7.8
2015-Aug-06 19:32N 28°38' W 116°13'7 7.6
2015-Aug-06 18:33N 28°45' W 116°16'8 7.7
2015-Aug-06 17:32N 28°53' W 116°19'8 7.9
2015-Aug-06 16:32N 29°00' W 116°22'8 7.8
2015-Aug-06 15:33N 29°08' W 116°24'9 8.0
2015-Aug-06 14:29N 29°16' W 116°28'8 7.8
2015-Aug-06 13:26N 29°23' W 116°31'7 7.6
2015-Aug-06 12:33N 29°30' W 116°33'8 7.9
2015-Aug-06 11:32N 29°37' W 116°36'8 8.0
2015-Aug-06 10:33N 29°45' W 116°39'17 8.4
2015-Aug-06 08:32N 30°01' W 116°46'9 8.4
2015-Aug-06 07:31N 30°09' W 116°49'8 8.2
2015-Aug-06 06:33N 30°16' W 116°52'8 8.1
2015-Aug-06 05:33N 30°24' W 116°55'8 8.2
2015-Aug-06 04:33N 30°32' W 116°58'8 8.3
2015-Aug-06 03:33N 30°40' W 117°01'9 8.5
2015-Aug-06 02:33N 30°48' W 117°04'9 8.6
2015-Aug-06 01:33N 30°56' W 117°07'9 9.0
2015-Aug-06 00:33N 31°05' W 117°09'13 9.1
2015-Aug-05 23:08N 31°17' W 117°14'5 8.9
2015-Aug-05 22:33N 31°22' W 117°16'9 8.6
2015-Aug-05 21:33N 31°30' W 117°20'8 8.4
2015-Aug-05 20:33N 31°37' W 117°24'8 8.0
2015-Aug-05 19:33N 31°45' W 117°27'8 8.0
2015-Aug-05 18:32N 31°53' W 117°31'8 7.9
2015-Aug-05 17:33N 31°60' W 117°34'8 7.8
2015-Aug-05 16:31N 32°07' W 117°38'2 1.7
2015-Aug-05 15:31N 32°09' W 117°38'2 1.6
2015-Aug-05 14:34N 32°11' W 117°37'8 7.6
2015-Aug-05 13:34N 32°18' W 117°40'8 8.1
2015-Aug-05 12:32N 32°26' W 117°44'8 8.2
2015-Aug-05 11:34N 32°33' W 117°47'8 8.2
2015-Aug-05 10:34N 32°41' W 117°50'8 8.1
2015-Aug-05 09:33N 32°48' W 117°54'8 7.9
2015-Aug-05 08:34N 32°56' W 117°57'8 7.8
2015-Aug-05 07:34N 33°03' W 117°60'8 8.1
2015-Aug-05 06:34N 33°11' W 118°03'8 8.1
2015-Aug-05 05:34N 33°18' W 118°06'9 8.7
2015-Aug-05 04:34N 33°27' W 118°10'9 8.5
2015-Aug-05 03:33N 33°35' W 118°13'8 7.6
2015-Aug-05 02:33N 33°42' W 118°11'3 2.7
2015-Aug-05 01:33N 33°44' W 118°09'0 0.1
2015-Aug-05 00:33N 33°44' W 118°09'0 0.0
2015-Aug-04 23:33N 33°44' W 118°09'0 0.0
2015-Aug-04 22:33N 33°44' W 118°09'0 0.1
2015-Aug-04 21:33N 33°44' W 118°09'0 0.1
2015-Aug-04 20:33N 33°44' W 118°09'0 0.1
2015-Aug-04 19:33N 33°44' W 118°09'0 0.0
2015-Aug-04 18:33N 33°44' W 118°09'0 0.2
2015-Aug-04 17:33N 33°44' W 118°09'0 0.1
2015-Aug-04 16:33N 33°44' W 118°09'1 0.8
2015-Aug-04 15:34N 33°44' W 118°10'8 8.0
2015-Aug-04 14:33N 33°36' W 118°14'1111.0
2015-Aug-04 13:34N 33°39' W 118°27'9 9.4
2015-Aug-04 12:34N 33°48' W 118°30'6 6.4
2015-Aug-04 11:33N 33°54' W 118°27'0 0.3
2015-Aug-04 10:25N 33°54' W 118°27'0 0.1
2015-Aug-04 09:31N 33°54' W 118°27'0 0.0
2015-Aug-04 08:31N 33°54' W 118°27'0 0.0
2015-Aug-04 07:22N 33°54' W 118°27'0 0.0
2015-Aug-04 06:28N 33°54' W 118°27'0 0.0
2015-Aug-04 05:22N 33°54' W 118°27'0 0.0
2015-Aug-04 04:28N 33°54' W 118°27'0 0.0
2015-Aug-04 03:22N 33°54' W 118°27'0 0.0
2015-Aug-04 02:28N 33°54' W 118°27'0 0.0
2015-Aug-04 01:22N 33°54' W 118°27'0 0.0
2015-Aug-04 00:31N 33°54' W 118°27'0 0.0
2015-Aug-03 23:31N 33°54' W 118°27'0 0.0
2015-Aug-03 22:31N 33°54' W 118°27'0 0.0
2015-Aug-03 21:31N 33°54' W 118°27'0 0.0
2015-Aug-03 20:31N 33°54' W 118°27'0 0.0
2015-Aug-03 19:31N 33°54' W 118°27'0 0.0
2015-Aug-03 18:31N 33°54' W 118°27'0 0.0
2015-Aug-03 17:28N 33°54' W 118°27'0 0.0
2015-Aug-03 16:28N 33°54' W 118°27'0 0.0
2015-Aug-03 15:28N 33°54' W 118°27'0 0.0
2015-Aug-03 14:31N 33°54' W 118°27'0 0.0
2015-Aug-03 13:28N 33°54' W 118°27'0 0.0
2015-Aug-03 12:28N 33°54' W 118°27'0 0.0
2015-Aug-03 11:04N 33°54' W 118°27'0 0.0
2015-Aug-03 10:28N 33°54' W 118°27'0 0.0
2015-Aug-03 09:28N 33°54' W 118°27'0 0.0
2015-Aug-03 08:10N 33°54' W 118°27'0 0.0
2015-Aug-03 06:22N 33°54' W 118°27'0 0.0
2015-Aug-03 05:16N 33°54' W 118°27'0 0.0
2015-Aug-03 01:16N 33°54' W 118°27'0 0.0
2015-Aug-03 00:25N 33°54' W 118°27'0 0.0
2015-Aug-02 23:25N 33°54' W 118°27'0 0.0
2015-Aug-02 22:31N 33°54' W 118°27'0 0.0
2015-Aug-02 21:28N 33°54' W 118°27'0 0.0
2015-Aug-02 20:22N 33°54' W 118°27'0 0.0
2015-Aug-02 18:22N 33°54' W 118°27'0 0.1
2015-Aug-02 17:28N 33°54' W 118°27'2 2.1
2015-Aug-02 16:33N 33°53' W 118°29'1 0.9
2015-Aug-02 15:30N 33°54' W 118°29'0 0.1
2015-Aug-02 14:33N 33°54' W 118°30'0 0.1
2015-Aug-02 13:33N 33°54' W 118°30'0 0.0
2015-Aug-02 12:33N 33°54' W 118°30'0 0.1
2015-Aug-02 11:33N 33°54' W 118°30'0 0.1
2015-Aug-02 10:33N 33°54' W 118°29'0 0.0
2015-Aug-02 09:33N 33°54' W 118°29'0 0.0
2015-Aug-02 08:33N 33°54' W 118°29'0 0.1
2015-Aug-02 07:33N 33°54' W 118°29'0 0.1
2015-Aug-02 06:33N 33°54' W 118°30'0 0.0
2015-Aug-02 05:33N 33°54' W 118°30'0 0.1
2015-Aug-02 04:33N 33°54' W 118°29'0 0.0
2015-Aug-02 03:33N 33°54' W 118°29'0 0.0
2015-Aug-02 02:33N 33°54' W 118°29'0 0.1
2015-Aug-02 01:33N 33°54' W 118°30'0 0.0
2015-Aug-02 00:30N 33°54' W 118°30'0 0.1
2015-Aug-01 23:33N 33°54' W 118°29'0 0.1
2015-Aug-01 22:33N 33°54' W 118°29'0 0.0
2015-Aug-01 21:33N 33°54' W 118°29'0 0.0
2015-Aug-01 20:33N 33°54' W 118°29'0 0.1
2015-Aug-01 19:33N 33°54' W 118°29'0 0.1
2015-Aug-01 18:33N 33°54' W 118°29'0 0.0
2015-Aug-01 17:33N 33°54' W 118°29'0 0.0
2015-Aug-01 16:33N 33°54' W 118°29'0 0.0
2015-Aug-01 15:33N 33°54' W 118°29'0 0.0
2015-Aug-01 14:33N 33°54' W 118°29'0 0.1
2015-Aug-01 13:33N 33°54' W 118°30'0 0.1
2015-Aug-01 12:33N 33°54' W 118°30'0 0.1
2015-Aug-01 11:33N 33°54' W 118°30'0 0.1
2015-Aug-01 10:33N 33°54' W 118°29'0 0.1
2015-Aug-01 09:33N 33°54' W 118°29'0 0.0
2015-Aug-01 08:33N 33°54' W 118°29'0 0.1
2015-Aug-01 07:33N 33°54' W 118°30'0 0.1
2015-Aug-01 06:33N 33°54' W 118°29'0 0.1
2015-Aug-01 05:33N 33°54' W 118°29'0 0.0
2015-Aug-01 04:33N 33°54' W 118°29'0 0.0
2015-Aug-01 03:33N 33°54' W 118°29'0 0.1
2015-Aug-01 02:33N 33°54' W 118°29'0 0.0
2015-Aug-01 01:33N 33°54' W 118°29'0 0.1
2015-Aug-01 00:33N 33°54' W 118°29'0 0.0
2015-Jul-31 23:33N 33°54' W 118°29'0 0.0
2015-Jul-31 22:33N 33°54' W 118°29'0 0.0
2015-Jul-31 21:33N 33°54' W 118°29'0 0.0
2015-Jul-31 20:33N 33°54' W 118°29'0 0.0
2015-Jul-31 19:33N 33°54' W 118°29'0 0.0
2015-Jul-31 18:33N 33°54' W 118°29'0 0.0
2015-Jul-31 17:33N 33°54' W 118°29'0 0.0
2015-Jul-31 16:33N 33°54' W 118°29'0 0.0
2015-Jul-31 15:33N 33°54' W 118°29'0 0.2
2015-Jul-31 14:33N 33°54' W 118°30'5 3.8
2015-Jul-31 13:08N 33°49' W 118°30'4 7.0
2015-Jul-31 12:33N 33°45' W 118°30'6 6.1
2015-Jul-31 11:33N 33°40' W 118°25'6 6.2
2015-Jul-31 10:33N 33°38' W 118°18'7 6.6
2015-Jul-31 09:33N 33°36' W 118°11'7 6.6
2015-Jul-31 08:33N 33°30' W 118°07'8 7.2
2015-Jul-31 07:30N 33°23' W 118°04'7 7.2
2015-Jul-31 06:33N 33°16' W 118°02'7 7.0
2015-Jul-31 05:33N 33°09' W 117°60'7 7.1
2015-Jul-31 04:33N 33°02' W 117°58'7 7.2
2015-Jul-31 03:33N 32°56' W 117°55'7 7.0
2015-Jul-31 02:33N 32°49' W 117°53'7 6.8
2015-Jul-31 01:33N 32°42' W 117°51'3 2.9
2015-Jul-31 00:33N 32°39' W 117°51'0 0.2
2015-Jul-30 23:33N 32°39' W 117°51'0 0.3
2015-Jul-30 22:33N 32°39' W 117°51'1 0.8
2015-Jul-30 21:33N 32°39' W 117°51'5 5.1
2015-Jul-30 20:33N 32°34' W 117°49'7 6.8
2015-Jul-30 19:33N 32°27' W 117°49'7 6.7
2015-Jul-30 18:33N 32°20' W 117°47'7 7.0
2015-Jul-30 17:33N 32°13' W 117°47'7 7.0
2015-Jul-30 16:33N 32°06' W 117°46'7 6.9
2015-Jul-30 15:33N 31°60' W 117°45'7 7.3
2015-Jul-30 14:33N 31°52' W 117°44'7 7.4
2015-Jul-30 13:33N 31°45' W 117°43'8 7.2
2015-Jul-30 12:28N 31°37' W 117°42'7 7.1
2015-Jul-30 11:33N 31°31' W 117°41'7 6.8
2015-Jul-30 10:29N 31°24' W 117°38'6 6.9
2015-Jul-30 09:33N 31°18' W 117°36'7 6.8
2015-Jul-30 08:33N 31°11' W 117°33'8 6.6
2015-Jul-30 07:24N 31°04' W 117°30'6 6.5
2015-Jul-30 06:33N 30°59' W 117°28'7 6.5
2015-Jul-30 05:33N 30°53' W 117°26'20 6.5
2015-Jul-30 02:29N 30°34' W 117°19'142 6.2
2015-Jul-29 03:33N 28°19' W 116°28'  

Dump ship's entire track history